Satellite: NOAA-11
Catalog number: 19531
Epoch time:      06152.23622259
Element set:     137
Inclination:      098.8260 deg
RA of node:       240.8236 deg
Eccentricity:    0.0012205
Arg of perigee:   038.6307 deg
Mean anomaly:     321.5762 deg
Mean motion:   14.14798724 rev/day
Decay rate:        4.3e-07 rev/day^2
Epoch rev:           91228
Checksum:              285

Satellite: NOAA-12
Catalog number: 21263
Epoch time:      06152.45291342
Element set:     630
Inclination:      098.7289 deg
RA of node:       145.8049 deg
Eccentricity:    0.0013412
Arg of perigee:   130.8223 deg
Mean anomaly:     229.4149 deg
Mean motion:   14.25487773 rev/day
Decay rate:       -6.3e-07 rev/day^2
Epoch rev:           78200
Checksum:              291

Satellite: MET-3/5
Catalog number: 21655
Epoch time:      06151.95640912
Element set:    0164
Inclination:      082.5556 deg
RA of node:       272.2539 deg
Eccentricity:    0.0014404
Arg of perigee:   082.5557 deg
Mean anomaly:     277.7200 deg
Mean motion:   13.17006730 rev/day
Decay rate:        5.1e-07 rev/day^2
Epoch rev:           71122
Checksum:              276

Satellite: MET-2/21
Catalog number: 22782
Epoch time:      06152.62899477
Element set:     522
Inclination:      082.5468 deg
RA of node:       343.7973 deg
Eccentricity:    0.0021092
Arg of perigee:   221.1409 deg
Mean anomaly:     138.8136 deg
Mean motion:   13.83605073 rev/day
Decay rate:       -4.4e-07 rev/day^2
Epoch rev:           64389
Checksum:              319

Satellite: OKEAN-4
Catalog number: 23317
Epoch time:      06152.15304856
Element set:     958
Inclination:      082.5389 deg
RA of node:       291.9552 deg
Eccentricity:    0.0023998
Arg of perigee:   069.1985 deg
Mean anomaly:     291.1825 deg
Mean motion:   14.82361876 rev/day
Decay rate:       2.79e-06 rev/day^2
Epoch rev:           62760
Checksum:              348

Satellite: NOAA-14
Catalog number: 23455
Epoch time:      06152.37436359
Element set:     135
Inclination:      099.0379 deg
RA of node:       210.4761 deg
Eccentricity:    0.0010220
Arg of perigee:   095.9690 deg
Mean anomaly:     264.2662 deg
Mean motion:   14.13660311 rev/day
Decay rate:       -3.5e-07 rev/day^2
Epoch rev:           58883
Checksum:              294

Satellite: SICH-1
Catalog number: 23657
Epoch time:      06152.13639410
Element set:     761
Inclination:      082.5295 deg
RA of node:       072.8696 deg
Eccentricity:    0.0025653
Arg of perigee:   057.4029 deg
Mean anomaly:     302.9648 deg
Mean motion:   14.81357266 rev/day
Decay rate:       1.47e-06 rev/day^2
Epoch rev:           57961
Checksum:              321

Satellite: NOAA-15
Catalog number: 25338
Epoch time:      06152.50164399
Element set:     529
Inclination:      098.5144 deg
RA of node:       155.2744 deg
Eccentricity:    0.0011581
Arg of perigee:   062.7471 deg
Mean anomaly:     297.4896 deg
Mean motion:   14.24581406 rev/day
Decay rate:       -5.0e-07 rev/day^2
Epoch rev:           41848
Checksum:              318

Satellite: RESURS
Catalog number: 25394
Epoch time:      06152.68674686
Element set:     380
Inclination:      098.4918 deg
RA of node:       216.0986 deg
Eccentricity:    0.0000728
Arg of perigee:   187.3726 deg
Mean anomaly:     172.7438 deg
Mean motion:   14.24101936 rev/day
Decay rate:        1.3e-07 rev/day^2
Epoch rev:           41019
Checksum:              313

Satellite: FENGYUN1
Catalog number: 25730
Epoch time:      06152.45939669
Element set:     741
Inclination:      098.6242 deg
RA of node:       145.6029 deg
Eccentricity:    0.0014279
Arg of perigee:   182.2118 deg
Mean anomaly:     177.9000 deg
Mean motion:   14.11812888 rev/day
Decay rate:       2.81e-06 rev/day^2
Epoch rev:           36379
Checksum:              313

Satellite: OKEAN-0
Catalog number: 25860
Epoch time:      06152.11558516
Element set:     761
Inclination:      097.7326 deg
RA of node:       167.1993 deg
Eccentricity:    0.0001422
Arg of perigee:   103.7209 deg
Mean anomaly:     256.4157 deg
Mean motion:   14.73366231 rev/day
Decay rate:        9.1e-07 rev/day^2
Epoch rev:           36938
Checksum:              298

Satellite: NOAA-16
Catalog number: 26536
Epoch time:      06152.27658295
Element set:     899
Inclination:      099.0655 deg
RA of node:       118.7091 deg
Eccentricity:    0.0010524
Arg of perigee:   160.2833 deg
Mean anomaly:     199.8756 deg
Mean motion:   14.12342473 rev/day
Decay rate:      -1.68e-06 rev/day^2
Epoch rev:           29333
Checksum:              331

Satellite: NOAA-17
Catalog number: 27453
Epoch time:      06152.49983667
Element set:     920
Inclination:      098.6211 deg
RA of node:       225.0166 deg
Eccentricity:    0.0012736
Arg of perigee:   119.4366 deg
Mean anomaly:     240.8082 deg
Mean motion:   14.23782355 rev/day
Decay rate:       2.03e-06 rev/day^2
Epoch rev:           20454
Checksum:              298

Satellite: NOAA-18
Catalog number: 28654
Epoch time:      06152.39357511
Element set:     501
Inclination:      098.7885 deg
RA of node:       096.0083 deg
Eccentricity:    0.0013475
Arg of perigee:   267.1425 deg
Mean anomaly:     092.8200 deg
Mean motion:   14.10964115 rev/day
Decay rate:       3.58e-06 rev/day^2
Epoch rev:            5315
Checksum:              299

/EX
SB KEPS @ AMSAT  $ORB06152.M
Orbital Elements  06152.MISC

HR AMSAT ORBITAL ELEMENTS FOR MANNED AND MISCELLANEOUS SATELLITES
FROM WA5QGD FORT WORTH,TX June 1, 2006
Send SUBSCRIBE KEPS/UNSUBSCRIBE KEPS to majordomo@amsat.org only
BID: ORB06152.M
TO ALL RADIO AMATEURS BT

